Find OTC-P1-1

NORAD ID: 63351 Int'l Des: 2025-061 Owner: ORORA Country: D operational
LEOCIRCULARRETROGRADESSO

Live Position

Loading 3D Globe...

About OTC-P1-1

Description loading...

Upcoming Passes

Passes for default location (London). Set your location on the main map for personalized predictions.

Altitude History

Loading altitude history...

Two-Line Element Set

1 63351U 25061A 26104.87311822 .00002433 00000-0 14082-3 0 9997
2 63351 97.5598 80.7366 0020520 120.7426 239.5829 15.13025055 58013
Epoch: Apr 14, 2026 • Age: 5 hours

Current Status

Altitude 526.5 km
Velocity 7.61 km/s
Sub-Earth Point 76.36°N, 58.21°E
Launch Date Mar 26, 2025
Age 1 years
Type other

Technical Details

Classification Payload
Mass 15.00 kg
Dry Mass 15.00 kg
Total Mass 15.00 kg
Length 0.30 m
Diameter 0.20 m
Span 0.40 m
Shape Box+2 pan
Manufacturer SPIREG
Bus Type Cubesat 6U
Phase Status In Orbit
Owner/State ORORA/D

Most Searched